Location: Unspecified
(0.0000°N, 0.0000°E)
Time: 08:48:33
(UTC+00:00)

Vanguard 2 - Pass Details

Date: 13 December 2018
Orbit: 553 x 2939 km, 32.9° (Epoch: 23 March)

Event Time Altitude Azimuth Distance (km) Brightness Sun altitude
Rises 14:35:07 0° 217° (SW) 4,013 11.9 44.6°
Reaches altitude 10° 14:39:08 10° 201° (SSW) 2,641 11.0 43.7°
Maximum altitude 14:43:23 20° 155° (SSE) 1,679 9.6 42.9°
Drops below altitude 10° 14:46:44 10° 107° (ESE) 2,012 9.5 42.1°
Sets 14:49:17 0° 88° (E) 2,785 10.0 41.6°
